Location: LDNL
(36.4545°S, 141.6685°E)
Time: 12:11:16
(UTC+10:00)

Oscar 11 - Pass Details

Date: 23 May 2022
Orbit: 613 x 622 km, 97.6° (Epoch: 29 June)

Event Time Altitude Azimuth Distance (km) Brightness Sun altitude
Rises 18:26:06 0° 184° (S) 2,932 10.4 -11.3°
Reaches altitude 10° 18:28:40 10° 198° (SSW) 2,015 9.7 -11.8°
Maximum altitude 18:32:05 23° 249° (WSW) 1,350 9.5 -12.5°
Drops below altitude 10° 18:35:28 10° 301° (WNW) 1,989 11.0 -13.1°
Sets 18:37:59 0° 315° (NW) 2,883 11.6 -13.6°
